DECAYED

NOAA 17 DEB, 48712 (Decayed)

Orbit data source: Space-Track

NOAA 17 DEB, 48712 was space debris in SSO originally from a launch on Mon, 24 Jun 2002 UTC launched from the Air Force Western Test Range (AFWTR). Debris objects in space refer to the collection of defunct objects orbiting the Earth. Examples of debris include non-operational satellites, rocket bodies, and fragments generated from explosions, collisions, or faulty payload assembly.

Not visible in the next 10 days
Identifier
48712, 2002-032AV
Orbit
Decayed
Country
Flag of USUS
Related business
Manufacturer
Unknown
Mission
Decayed spacecraft
Bus & Motor
Unknown
Mass
Unknown
Launch date (UTC)
2002-06-24 (24 years ago)
Launch vehicle
Unknown
Launch site
Air Force Western Test Range (AFWTR)
Object type
Payload
Rocket body
Debris
Shape & HBR
Unknown shape, 0.1 m
Radar Cross Section
Medium (>0.1 m² and <1 m²)

Expand to show TLE details & history
Last TLE update: 7 months ago

TLE from 7 months ago
0 NOAA 17 DEB
1 48712U 02032AV  25315.09643291  .00236724  00000-0  88856-2 0  9990
2 48712  98.6891   1.3858 0009520 185.4684 174.6448 15.26123199242924
Epoch: 2025-11-11T02:18Z
TLE epoch observation values (Epoch: 2025-11-11T02:18:51.803Z)
Latitude
-0.00003°
Longitude
-83.81793°
Altitude
496.982 km
Speed
7.613 km/s
True Right ascension
00h 05m 32s
True Declination
0° 00' 00"
Sunlit
Object was in full shadow at epoch
Visualization orbit readout
Latitude
Unknown
Longitude
Unknown
Altitude
Unknown
Speed
Unknown
Apparent Right ascension
Unknown
Apparent Declination
Unknown
Sunlit
N/A
Visualization observer readout
Local Sidereal Time
21:38:06
Azimuth
Unknown
Elevation
Unknown
Doppler factor
Unknown
Orbital elements
Apogee altitude
490.965 km
Perigee altitude
477.899 km
Semi-major axis
6,862.569 km
Eccentricity
0.00095
Inclination
98.6891°
RAAN
1.3858°
Arg. of periapsis
185.4684°
True anomaly
174.65497°
Mean anomaly
174.6448°
Eccentric anomaly
174.64989°
Mean motion
3.8178 °/min
Orbital period
94.3 mins
BSTAR
0.0088856
Loading maneuver chart data...
Computing Atmospheric mass density...

Documentation

Showing up to 5 results
|